Date,TemperatureHighF,TemperatureAvgF,TemperatureLowF,DewpointHighF,DewpointAvgF,DewpointLowF,HumidityHigh,HumidityAvg,HumidityLow,PressureMaxIn,PressureMinIn,WindSpeedMaxMPH,WindSpeedAvgMPH,GustSpeedMaxMPH,PrecipitationSumIn
2013-3-1,46.1,35.0,18.8,26.5,20.9,15.1,88,59,34,30.35,30.17,19,5,19,0.00
2013-3-2,60.9,46.2,29.4,36.1,30.0,22.1,81,55,36,30.19,29.82,26,5,26,0.00
2013-3-3,57.9,46.1,34.0,35.3,31.5,25.9,86,58,41,29.82,29.47,50,6,50,0.01
2013-3-4,34.7,26.4,16.8,26.3,16.1,6.4,89,66,38,30.34,29.67,48,18,48,0.00
2013-3-5,31.5,20.2,8.7,17.5,12.1,4.3,84,71,54,30.55,30.33,31,5,39,0.00
2013-3-6,48.3,30.2,13.4,26.9,19.0,9.0,87,66,38,30.37,29.79,25,6,25,0.00
2013-3-7,55.6,41.0,30.4,31.3,27.2,23.0,75,60,35,30.17,29.73,28,7,30,0.00
2013-3-8,42.4,33.6,24.0,30.6,27.1,21.1,92,77,61,30.17,29.91,15,3,15,0.00
2013-3-9,44.6,33.5,27.1,30.9,24.8,15.4,96,73,34,30.19,29.83,44,15,44,0.00
2013-3-10,41.9,29.8,17.7,21.0,14.8,8.5,89,57,30,30.35,30.03,27,9,27,0.00
2013-3-11,48.4,37.7,26.3,30.9,19.7,10.7,67,48,36,30.15,29.90,40,13,40,0.00
2013-3-12,40.6,31.0,23.8,16.8,10.5,5.3,60,43,30,30.36,30.15,36,13,36,0.00
2013-3-13,67.5,46.7,24.5,34.3,22.7,6.3,48,39,29,30.30,29.98,21,4,24,0.00
2013-3-14,73.7,56.7,39.7,38.0,33.8,29.4,68,44,27,30.16,29.83,20,3,20,0.00
2013-3-15,68.2,50.9,32.9,35.8,32.0,25.4,78,51,28,30.04,29.68,37,8,37,0.00
2013-3-16,32.9,29.2,23.6,29.2,26.0,22.6,97,88,74,30.14,30.01,17,6,17,0.00
2013-3-17,49.2,31.0,22.4,40.4,28.0,19.6,100,89,65,30.02,29.35,44,16,44,0.12
2013-3-18,38.6,26.6,14.8,19.9,12.5,6.8,85,58,28,30.08,29.83,32,12,32,0.00
2013-3-19,36.8,29.6,15.0,23.5,14.8,6.2,76,55,35,30.50,29.98,34,9,34,0.00
2013-3-20,48.3,30.7,14.5,22.4,15.1,6.7,73,54,34,30.49,29.85,30,9,30,0.00
2013-3-21,44.9,29.4,17.2,27.6,21.0,12.4,96,72,49,29.93,29.68,25,6,25,0.00
2013-3-22,34.1,25.1,14.3,31.5,23.7,12.4,98,94,82,30.20,29.89,28,5,28,0.04
2013-3-23,25.9,19.7,9.6,20.0,15.2,6.7,100,83,71,30.41,30.19,27,10,27,0.01
2013-3-24,21.5,15.5,7.4,16.3,11.5,4.8,91,84,73,30.50,30.34,32,11,32,0.00
2013-3-25,30.4,18.6,2.3,16.8,11.5,-0.4,89,75,52,30.56,30.34,18,3,20,0.01
2013-3-26,40.6,27.7,17.0,26.9,19.0,11.5,84,70,51,30.34,30.08,16,3,16,0.00
2013-3-27,53.9,36.1,17.6,33.2,24.1,15.1,91,65,34,30.20,30.08,13,2,13,0.00
2013-3-28,63.7,49.2,27.4,34.2,30.6,22.9,86,51,30,30.09,30.01,11,2,14,0.00
2013-3-29,69.3,54.1,38.6,38.7,33.7,28.7,73,48,27,30.07,29.84,23,5,23,0.00
2013-3-30,57.4,47.3,36.7,42.5,36.2,31.8,86,66,44,30.12,29.95,34,6,34,0.03
2013-3-31,49.9,38.7,30.8,35.5,28.7,22.3,89,69,39,30.24,29.93,23,5,24,0.00